M I D A S
Marine Information and Data Acquisition System
Tripno 1470 of the Zeeleeuw from 2007-12-04 07:34:34 to 2007-12-04 13:11:10
Back to CruiseResearch ActivitiesStationsMapUnderway DataData graphs

EquipmentUnitsComments
TimeDGPSUTC
LatitudeDGPSDM.mWGS84
LongitudeDGPSDM.mWGS84
SpeedMeteo Stationm/sRelative wind speed
DirectionMeteo StationdegRelative wind direction
TemperatureMeteo Stationdeg CelciusAir temperature
PressureMeteo StationPaAtmospheric pressure
HumidityMeteo Station%Relative humidity
Missing or incorrect values are displayed as -999
Metereological data collected by the RV Zeeleeuw from 2007-12-04 07:35:02 to 2007-12-04 13:26:15
Time Latitude Longitude Speed Direction Temperature Pressure Humidity
2007-12-04 07:36 51°13.605 2°56.064 4.3 53 8.9 101430 70
2007-12-04 07:37 51°13.626 2°55.99 3.8 52 9 101430 71
2007-12-04 07:38 51°13.658 2°55.903 7.1 54 9.2 101430 70
2007-12-04 07:39 51°13.686 2°55.807 6.9 53 9 101440 68
2007-12-04 07:40 51°13.695 2°55.734 4.7 58 8.9 101440 69
2007-12-04 07:41 51°13.699 2°55.739 4 307 8.8 101440 70
2007-12-04 07:42 51°13.689 2°55.727 3.6 304 8.8 101440 70
2007-12-04 07:43 51°13.716 2°55.72 5.2 310 8.8 101430 70
2007-12-04 07:44 51°13.784 2°55.67 8.8 329 8.7 101430 70
2007-12-04 07:45 51°13.899 2°55.578 9.1 304 8.8 101430 70
2007-12-04 07:46 51°14.04 2°55.478 11.7 306 8.7 101430 70
2007-12-04 07:47 51°14.187 2°55.365 12.5 306 8.8 101420 71
2007-12-04 07:48 51°14.297 2°55.184 14.7 326 8.8 101430 71
2007-12-04 07:49 51°14.398 2°54.99 15.1 328 8.8 101430 71
2007-12-04 07:50 51°14.452 2°54.753 12.6 343 8.8 101420 72
2007-12-04 07:51 51°14.41 2°54.486 12.2 349 8.8 101410 72
2007-12-04 07:52 51°14.34 2°54.223 12.3 347 8.9 101410 72
2007-12-04 07:53 51°14.265 2°53.95 12.9 343 8.9 101420 73
2007-12-04 07:54 51°14.183 2°53.686 13.1 282 8.9 101410 72
2007-12-04 07:55 51°14.094 2°53.434 11.4 349 8.8 101380 71
2007-12-04 07:56 51°14.004 2°53.172 11.5 349 8.9 101390 72
2007-12-04 07:57 51°13.896 2°52.924 12.6 355 8.9 101390 73
2007-12-04 07:58 51°13.783 2°52.693 11.6 279 8.9 101390 72
2007-12-04 07:59 51°13.667 2°52.459 12 351 8.9 101400 72
2007-12-04 08:00 51°13.551 2°52.223 10.8 351 8.9 101410 71
2007-12-04 08:01 51°13.439 2°52.004 11.9 352 8.9 101410 72
2007-12-04 08:02 51°13.329 2°51.783 10.4 353 8.9 101420 72
2007-12-04 08:03 51°13.258 2°51.644 9.8 356 9 101450 73
2007-12-04 08:04 51°13.194 2°51.518 9.6 357 8.9 101450 71
2007-12-04 08:05 51°13.198 2°51.442 7 279 9 101480 73
2007-12-04 08:06 51°13.256 2°51.361 9.6 306 9 101470 72
2007-12-04 08:07 51°13.363 2°51.371 10.6 303 8.9 101480 72
2007-12-04 08:08 51°13.448 2°51.403 8.1 303 8.9 101490 71
2007-12-04 08:09 51°13.474 2°51.441 6.5 305 9 101480 72
2007-12-04 08:10 51°13.488 2°51.484 6.7 309 9 101490 72
2007-12-04 08:11 51°13.498 2°51.528 7.1 303 9 101480 71
2007-12-04 08:12 51°13.506 2°51.57 8 302 8.9 101480 71
2007-12-04 08:13 51°13.513 2°51.611 5.8 304 8.9 101500 70
2007-12-04 08:14 51°13.518 2°51.652 6.7 279 8.9 101510 71
2007-12-04 08:15 51°13.523 2°51.693 8.4 310 9 101490 71
2007-12-04 08:16 51°13.535 2°51.789 3.2 50 9 101500 71
2007-12-04 08:17 51°13.477 2°51.845 6 2 9.1 101480 73
2007-12-04 08:18 51°13.409 2°51.771 9.4 2 9 101470 72
2007-12-04 08:19 51°13.333 2°51.68 9.2 356 8.9 101480 69
2007-12-04 08:20 51°13.261 2°51.566 8.8 355 9 101490 68
2007-12-04 08:21 51°13.236 2°51.471 8.2 283 9 101490 70
2007-12-04 08:22 51°13.269 2°51.387 9.6 329 9 101480 70
2007-12-04 08:23 51°13.324 2°51.318 8.6 306 9.1 101490 71
2007-12-04 08:24 51°13.404 2°51.31 7.6 302 9 101490 71
2007-12-04 08:25 51°13.434 2°51.344 6.1 304 9 101500 71
2007-12-04 08:26 51°13.44 2°51.383 5.3 310 9.1 101510 72
2007-12-04 08:27 51°13.447 2°51.422 6 307 9.1 101520 71
2007-12-04 08:28 51°13.454 2°51.462 4.1 304 9 101520 71
2007-12-04 08:29 51°13.461 2°51.502 5.7 308 9 101510 71
2007-12-04 08:30 51°13.466 2°51.542 5.4 303 9.1 101520 72
2007-12-04 08:31 51°13.471 2°51.582 4.1 304 9.1 101530 72
2007-12-04 08:32 51°13.482 2°51.631 7.5 312 9.1 101530 73
2007-12-04 08:33 51°13.548 2°51.777 5.5 303 9.1 101490 72
2007-12-04 08:34 51°13.643 2°52.081 5.4 285 9 101480 72
2007-12-04 08:35 51°13.749 2°52.407 6.9 303 9.1 101470 72
2007-12-04 08:36 51°13.862 2°52.728 6 302 9.1 101480 72
2007-12-04 08:37 51°13.969 2°53.041 5.4 310 9.1 101470 71
2007-12-04 08:38 51°14.086 2°53.358 6.2 309 9.1 101470 71
2007-12-04 08:39 51°14.2 2°53.667 7.9 305 9.1 101490 72
2007-12-04 08:40 51°14.32 2°53.982 6.5 302 9.1 101480 71
2007-12-04 08:41 51°14.436 2°54.285 5.7 310 9.1 101480 71
2007-12-04 08:42 51°14.574 2°54.575 6.5 304 9.1 101500 71
2007-12-04 08:43 51°14.77 2°54.72 9.7 304 9.1 101470 71
2007-12-04 08:44 51°14.979 2°54.719 13.1 305 9.1 101470 71
2007-12-04 08:45 51°15.181 2°54.657 12.4 307 9.1 101470 71
2007-12-04 08:46 51°15.378 2°54.602 12 307 9.2 101480 72
2007-12-04 08:47 51°15.576 2°54.529 12.3 306 9.2 101490 71
2007-12-04 08:48 51°15.771 2°54.447 10.3 305 9.2 101490 72
2007-12-04 08:49 51°15.966 2°54.343 12.2 306 9.2 101480 72
2007-12-04 08:50 51°16.141 2°54.257 9.8 302 9.2 101510 71
2007-12-04 08:51 51°16.224 2°54.241 8 310 9.2 101510 71
2007-12-04 08:52 51°16.248 2°54.275 5.6 307 9.2 101520 71
2007-12-04 08:53 51°16.252 2°54.306 6.1 62 9.2 101530 72
2007-12-04 08:54 51°16.256 2°54.339 6.9 75 9.2 101520 72
2007-12-04 08:55 51°16.262 2°54.376 6.3 74 9.2 101530 73
2007-12-04 08:56 51°16.27 2°54.415 5.5 53 9.2 101540 73
2007-12-04 08:57 51°16.278 2°54.455 5.9 285 9.2 101550 72
2007-12-04 08:58 51°16.288 2°54.496 4.8 279 9.2 101540 72
2007-12-04 08:59 51°16.296 2°54.534 5 310 9.2 101540 72
2007-12-04 09:00 51°16.302 2°54.573 3.8 280 9.2 101550 73
2007-12-04 09:01 51°16.308 2°54.61 4 310 9.3 101550 74
2007-12-04 09:02 51°16.314 2°54.648 6.2 284 9.3 101550 74
2007-12-04 09:03 51°16.318 2°54.686 5.8 307 9.2 101550 73
2007-12-04 09:04 51°16.322 2°54.722 5.5 304 9.2 101560 72
2007-12-04 09:05 51°16.327 2°54.758 5.4 303 9.2 101550 73
2007-12-04 09:06 51°16.331 2°54.795 6.5 302 9.2 101560 73
2007-12-04 09:07 51°16.334 2°54.83 5.3 304 9.2 101550 72
2007-12-04 09:08 51°16.338 2°54.866 6.5 304 9.2 101560 73
2007-12-04 09:09 51°16.342 2°54.902 6.8 305 9.2 101560 72
2007-12-04 09:10 51°16.345 2°54.938 7.3 311 9.2 101560 72
2007-12-04 09:11 51°16.349 2°54.974 6.2 280 9.2 101560 72
2007-12-04 09:12 51°16.369 2°55.048 2.6 77 9.2 101560 72
2007-12-04 09:13 51°16.327 2°55.158 5.8 5 9.3 101560 72
2007-12-04 09:14 51°16.266 2°55.091 9.3 281 9.2 101550 72
2007-12-04 09:15 51°16.209 2°54.945 10.1 285 9.3 101540 72
2007-12-04 09:16 51°16.169 2°54.781 10.3 282 9.2 101540 72
2007-12-04 09:17 51°16.137 2°54.609 10.9 285 9.2 101550 72
2007-12-04 09:18 51°16.12 2°54.438 9.7 282 9.3 101550 72
2007-12-04 09:19 51°16.163 2°54.338 9.6 309 9.3 101560 72
2007-12-04 09:20 51°16.21 2°54.338 6.2 286 9.3 101550 72
2007-12-04 09:21 51°16.239 2°54.337 5.2 281 9.3 101560 72
2007-12-04 09:22 51°16.247 2°54.383 6.8 284 9.3 101560 72
2007-12-04 09:23 51°16.25 2°54.426 5.7 285 9.3 101560 72
2007-12-04 09:24 51°16.252 2°54.467 7.8 285 9.4 101570 73
2007-12-04 09:25 51°16.255 2°54.505 7.1 302 9.4 101570 73
2007-12-04 09:26 51°16.258 2°54.54 3.6 280 9.4 101570 73
2007-12-04 09:27 51°16.262 2°54.575 6.1 280 9.4 101580 73
2007-12-04 09:28 51°16.284 2°54.645 3.1 82 9.3 101560 72
2007-12-04 09:29 51°16.248 2°54.747 7.6 359 9.4 101550 73
2007-12-04 09:30 51°16.207 2°54.686 9.5 285 9.4 101550 75
2007-12-04 09:31 51°16.219 2°54.564 10.9 282 9.4 101550 75
2007-12-04 09:32 51°16.213 2°54.415 11.7 277 9.4 101550 75
2007-12-04 09:33 51°16.241 2°54.285 8.1 280 9.3 101560 76
2007-12-04 09:34 51°16.266 2°54.268 9.3 283 9.4 101560 76
2007-12-04 09:35 51°16.288 2°54.291 8.1 284 9.4 101570 76
2007-12-04 09:36 51°16.306 2°54.322 6.4 285 9.4 101570 76
2007-12-04 09:37 51°16.319 2°54.357 6 280 9.4 101570 77
2007-12-04 09:38 51°16.328 2°54.394 5.4 304 9.3 101570 77
2007-12-04 09:39 51°16.332 2°54.43 6.5 60 9.3 101570 77
2007-12-04 09:40 51°16.337 2°54.464 7.3 80 9.3 101570 77
2007-12-04 09:41 51°16.362 2°54.504 5.8 286 9.2 101570 76
2007-12-04 09:42 51°16.387 2°54.538 4.6 303 9.2 101580 76
2007-12-04 09:43 51°16.464 2°54.618 2.2 56 9.2 101560 76
2007-12-04 09:44 51°16.552 2°54.876 0.3 33 9.3 101560 75
2007-12-04 09:45 51°16.639 2°55.204 0.9 9 9.3 101560 76
2007-12-04 09:46 51°16.721 2°55.543 0.9 333 9.3 101560 75
2007-12-04 09:47 51°16.806 2°55.881 0.9 305 9.3 101560 75
2007-12-04 09:48 51°16.89 2°56.217 1.9 5 9.4 101570 75
2007-12-04 09:49 51°16.974 2°56.554 0.3 354 9.4 101580 75
2007-12-04 09:50 51°17.052 2°56.895 1.3 344 9.5 101560 75
2007-12-04 09:51 51°17.155 2°57.213 2.3 304 9.5 101560 75
2007-12-04 09:52 51°17.317 2°57.465 5.9 310 9.5 101560 75
2007-12-04 09:53 51°17.481 2°57.714 4.2 310 9.5 101560 75
2007-12-04 09:54 51°17.643 2°57.963 4.2 307 9.5 101570 75
2007-12-04 09:55 51°17.792 2°58.23 1.9 309 9.5 101570 76
2007-12-04 09:56 51°17.91 2°58.538 0.8 309 9.5 101580 76
2007-12-04 09:57 51°18.025 2°58.843 1.3 63 9.5 101560 76
2007-12-04 09:58 51°18.137 2°59.152 0.8 304 9.5 101590 76
2007-12-04 09:59 51°18.254 2°59.456 1.8 305 9.5 101570 76
2007-12-04 10:00 51°18.369 2°59.761 1.3 308 9.5 101570 76
2007-12-04 10:01 51°18.486 3°0.063 1.3 62 9.5 101560 76
2007-12-04 10:02 51°18.603 3°0.364 1.1 60 9.5 101560 76
2007-12-04 10:03 51°18.716 3°0.664 1 305 9.5 101560 75
2007-12-04 10:04 51°18.834 3°0.963 0.9 303 9.5 101560 75
2007-12-04 10:05 51°18.953 3°1.265 1.4 303 9.5 101560 75
2007-12-04 10:06 51°19.071 3°1.569 1.1 308 9.5 101560 75
2007-12-04 10:07 51°19.192 3°1.872 1.3 63 9.6 101570 75
2007-12-04 10:08 51°19.309 3°2.178 0.6 345 9.6 101590 75
2007-12-04 10:09 51°19.428 3°2.483 1.5 305 9.6 101590 75
2007-12-04 10:10 51°19.55 3°2.787 1 326 9.6 101590 75
2007-12-04 10:11 51°19.667 3°3.095 0.7 305 9.6 101590 75
2007-12-04 10:12 51°19.79 3°3.402 0.7 52 9.6 101570 75
2007-12-04 10:13 51°19.91 3°3.707 1.4 303 9.6 101590 75
2007-12-04 10:14 51°20.043 3°3.996 2.4 308 9.6 101580 75
2007-12-04 10:15 51°20.212 3°4.232 3.4 304 9.6 101580 74
2007-12-04 10:16 51°20.383 3°4.459 3.6 303 9.6 101580 75
2007-12-04 10:17 51°20.555 3°4.684 3.1 302 9.6 101590 75
2007-12-04 10:18 51°20.725 3°4.913 3.7 308 9.5 101600 75
2007-12-04 10:19 51°20.862 3°5.185 0.6 56 9.5 101590 75
2007-12-04 10:20 51°20.921 3°5.526 1.5 11 9.4 101600 75
2007-12-04 10:21 51°20.987 3°5.867 1.1 11 9.4 101590 76
2007-12-04 10:22 51°21.057 3°6.208 1.7 17 9.3 101600 76
2007-12-04 10:23 51°21.128 3°6.546 2.3 8 9.3 101590 77
2007-12-04 10:24 51°21.198 3°6.881 1.2 3 9.3 101600 77
2007-12-04 10:25 51°21.27 3°7.218 1.3 346 9.2 101600 78
2007-12-04 10:26 51°21.343 3°7.551 2 16 9.2 101600 78
2007-12-04 10:27 51°21.425 3°7.877 0.7 358 9.2 101590 79
2007-12-04 10:28 51°21.581 3°8.111 3.6 304 9.1 101590 80
2007-12-04 10:29 51°21.765 3°8.292 4.3 302 9.1 101580 81
2007-12-04 10:30 51°21.967 3°8.407 6.2 309 9.1 101580 81
2007-12-04 10:31 51°22.176 3°8.434 7.9 308 9.1 101600 81
2007-12-04 10:32 51°22.386 3°8.377 10.1 305 9.1 101570 81
2007-12-04 10:33 51°22.596 3°8.331 7.1 309 9.1 101590 81
2007-12-04 10:34 51°22.806 3°8.305 6.9 307 9.1 101590 81
2007-12-04 10:35 51°22.995 3°8.45 2.8 304 9.1 101590 82
2007-12-04 10:36 51°23.11 3°8.739 1.5 12 9.1 101590 82
2007-12-04 10:37 51°23.166 3°9.071 2 3 9 101590 82
2007-12-04 10:38 51°23.168 3°9.411 5.1 7 9 101600 82
2007-12-04 10:39 51°23.145 3°9.75 6.6 8 9 101540 82
2007-12-04 10:40 51°23.117 3°10.088 5.3 7 8.9 101570 83
2007-12-04 10:41 51°23.056 3°10.412 5.7 3 8.9 101550 83
2007-12-04 10:42 51°22.991 3°10.734 6.3 3 8.9 101550 84
2007-12-04 10:43 51°22.926 3°11.059 6.9 3 8.9 101560 84
2007-12-04 10:44 51°22.869 3°11.385 7.8 358 8.8 101570 83
2007-12-04 10:45 51°22.817 3°11.717 8.8 357 8.6 101570 84
2007-12-04 10:46 51°22.757 3°12.042 8.3 351 8.4 101560 85
2007-12-04 10:47 51°22.662 3°12.339 9.2 351 8.3 101560 86
2007-12-04 10:48 51°22.555 3°12.631 9.7 355 8.1 101560 87
2007-12-04 10:49 51°22.46 3°12.92 6.4 1 8 101560 87
2007-12-04 10:50 51°22.436 3°13.11 3.4 34 8 101600 88
2007-12-04 10:51 51°22.491 3°13.179 3.6 309 8 101600 89
2007-12-04 10:52 51°22.552 3°13.184 3.3 309 8 101600 89
2007-12-04 10:53 51°22.594 3°13.189 5.6 62 8 101610 89
2007-12-04 10:54 51°22.609 3°13.197 6.2 55 8 101600 89
2007-12-04 10:55 51°22.622 3°13.208 5.5 56 8 101610 89
2007-12-04 10:56 51°22.632 3°13.214 3.9 306 8.1 101600 89
2007-12-04 10:57 51°22.639 3°13.221 5.2 304 8.1 101600 89
2007-12-04 10:58 51°22.646 3°13.23 3.8 302 8.1 101600 89
2007-12-04 10:59 51°22.65 3°13.242 4 304 8.1 101610 89
2007-12-04 11:00 51°22.655 3°13.255 4.8 302 8.1 101600 89
2007-12-04 11:01 51°22.659 3°13.268 3.1 309 8.1 101600 89
2007-12-04 11:02 51°22.677 3°13.252 6.6 302 8.1 101600 89
2007-12-04 11:03 51°22.68 3°13.201 6.3 307 8.1 101590 89
2007-12-04 11:04 51°22.656 3°13.092 8 305 8.1 101590 89
2007-12-04 11:05 51°22.628 3°12.912 9.7 325 8.2 101580 89
2007-12-04 11:06 51°22.585 3°12.674 10.4 326 8.2 101580 88
2007-12-04 11:07 51°22.534 3°12.394 11.1 301 8.3 101570 87
2007-12-04 11:08 51°22.476 3°12.078 10.9 303 8.4 101580 87
2007-12-04 11:09 51°22.428 3°11.826 8.8 323 8.4 101580 87
2007-12-04 11:10 51°22.414 3°11.721 7.5 303 8.4 101580 86
2007-12-04 11:11 51°22.435 3°11.667 6.1 307 8.4 101590 86
2007-12-04 11:12 51°22.483 3°11.654 4 55 8.5 101600 86
2007-12-04 11:13 51°22.519 3°11.712 5.1 35 8.6 101600 88
2007-12-04 11:14 51°22.514 3°11.782 7 14 8.5 101610 86
2007-12-04 11:15 51°22.49 3°11.818 7.2 358 8.5 101610 86
2007-12-04 11:16 51°22.464 3°11.824 6.9 344 8.5 101590 86
2007-12-04 11:17 51°22.443 3°11.802 6.9 331 8.5 101590 86
2007-12-04 11:18 51°22.413 3°11.752 9.5 332 8.5 101580 87
2007-12-04 11:19 51°22.357 3°11.637 10.8 302 8.5 101580 86
2007-12-04 11:20 51°22.336 3°11.471 10.1 305 8.5 101570 86
2007-12-04 11:21 51°22.309 3°11.328 7.6 307 8.6 101580 86
2007-12-04 11:22 51°22.296 3°11.223 8.5 306 8.6 101590 86
2007-12-04 11:23 51°22.306 3°11.179 7.9 302 8.6 101580 86
2007-12-04 11:24 51°22.321 3°11.175 5 310 8.6 101580 86
2007-12-04 11:25 51°22.332 3°11.176 7.1 303 8.6 101600 85
2007-12-04 11:26 51°22.342 3°11.178 5.6 61 8.6 101580 85
2007-12-04 11:27 51°22.353 3°11.181 7.3 304 8.6 101590 85
2007-12-04 11:28 51°22.365 3°11.185 5.7 50 8.6 101600 85
2007-12-04 11:29 51°22.377 3°11.188 9.1 302 8.6 101600 85
2007-12-04 11:30 51°22.388 3°11.193 6.7 56 8.6 101600 85
2007-12-04 11:31 51°22.4 3°11.199 8.7 57 8.6 101590 85
2007-12-04 11:32 51°22.413 3°11.207 7.8 303 8.6 101590 85
2007-12-04 11:33 51°22.426 3°11.215 4.4 303 8.6 101590 84
2007-12-04 11:34 51°22.437 3°11.225 4.7 308 8.7 101590 84
2007-12-04 11:35 51°22.449 3°11.235 6.1 303 8.6 101580 84
2007-12-04 11:36 51°22.466 3°11.242 6.8 52 8.6 101600 84
2007-12-04 11:37 51°22.502 3°11.26 4.4 56 8.6 101610 85
2007-12-04 11:38 51°22.526 3°11.312 5.8 29 8.7 101600 85
2007-12-04 11:39 51°22.488 3°11.373 9 354 8.7 101600 85
2007-12-04 11:40 51°22.352 3°11.409 10.3 341 8.7 101570 85
2007-12-04 11:41 51°22.302 3°11.323 8.3 304 8.6 101570 85
2007-12-04 11:42 51°22.309 3°11.286 8.6 303 8.7 101590 85
2007-12-04 11:43 51°22.318 3°11.285 4.3 307 8.7 101590 85
2007-12-04 11:44 51°22.326 3°11.288 5.4 305 8.7 101590 85
2007-12-04 11:45 51°22.333 3°11.29 7 309 8.7 101610 85
2007-12-04 11:46 51°22.339 3°11.295 7.1 299 8.6 101600 85
2007-12-04 11:47 51°22.347 3°11.301 5.5 307 8.6 101600 85
2007-12-04 11:48 51°22.392 3°11.28 6.5 304 8.6 101610 85
2007-12-04 11:49 51°22.542 3°11.208 8.6 304 8.7 101600 86
2007-12-04 11:50 51°22.713 3°11.017 9.3 304 8.7 101580 86
2007-12-04 11:51 51°22.823 3°10.723 13.3 307 8.7 101570 86
2007-12-04 11:52 51°22.922 3°10.41 13.6 307 8.7 101580 86
2007-12-04 11:53 51°23.019 3°10.101 12.5 303 8.7 101560 86
2007-12-04 11:54 51°23.046 3°9.766 14.6 305 8.7 101580 86
2007-12-04 11:55 51°22.978 3°9.444 14.2 327 8.7 101570 86
2007-12-04 11:56 51°22.885 3°9.137 13.8 327 8.7 101570 86
2007-12-04 11:57 51°22.796 3°8.824 11.6 328 8.7 101570 86
2007-12-04 11:58 51°22.71 3°8.511 13.4 327 8.8 101570 87
2007-12-04 11:59 51°22.618 3°8.203 14 302 8.7 101570 87
2007-12-04 12:00 51°22.514 3°7.904 14 328 8.7 101560 87
2007-12-04 12:01 51°22.403 3°7.613 14.1 329 8.7 101560 87
2007-12-04 12:02 51°22.294 3°7.32 13.3 326 8.8 101570 87
2007-12-04 12:03 51°22.202 3°7.009 11.9 325 8.8 101560 87
2007-12-04 12:04 51°22.114 3°6.695 13.4 323 8.8 101570 87
2007-12-04 12:05 51°22.025 3°6.385 13.9 324 8.8 101560 87
2007-12-04 12:06 51°21.936 3°6.077 13.8 306 8.8 101560 87
2007-12-04 12:07 51°21.846 3°5.771 13.9 306 8.8 101570 88
2007-12-04 12:08 51°21.78 3°5.45 12 303 8.8 101550 88
2007-12-04 12:09 51°21.723 3°5.124 11.8 304 8.8 101580 88
2007-12-04 12:10 51°21.666 3°4.8 11.7 306 8.8 101560 88
2007-12-04 12:11 51°21.603 3°4.477 14.7 306 8.9 101570 88
2007-12-04 12:12 51°21.536 3°4.156 13.7 304 8.9 101570 88
2007-12-04 12:13 51°21.457 3°3.842 13.8 324 9 101560 88
2007-12-04 12:14 51°21.373 3°3.531 12.6 324 9 101570 88
2007-12-04 12:15 51°21.29 3°3.22 13.4 326 9 101570 88
2007-12-04 12:16 51°21.209 3°2.91 15 325 9 101570 87
2007-12-04 12:17 51°21.126 3°2.603 13.7 327 9 101570 87
2007-12-04 12:18 51°21.045 3°2.295 13.4 324 9.1 101570 86
2007-12-04 12:19 51°20.967 3°1.983 13.6 305 9.2 101580 86
2007-12-04 12:20 51°20.886 3°1.675 12.3 301 9.2 101570 86
2007-12-04 12:21 51°20.804 3°1.365 13.7 306 9.2 101570 86
2007-12-04 12:22 51°20.723 3°1.054 11.8 324 9.2 101570 86
2007-12-04 12:23 51°20.641 3°0.739 14.3 324 9.2 101560 85
2007-12-04 12:24 51°20.56 3°0.426 14.5 325 9.2 101570 85
2007-12-04 12:25 51°20.484 3°0.113 12.7 303 9.2 101570 84
2007-12-04 12:26 51°20.404 2°59.804 15.3 304 9.2 101560 84
2007-12-04 12:27 51°20.323 2°59.498 12.1 303 9.2 101580 83
2007-12-04 12:28 51°20.242 2°59.19 14.1 326 9.2 101570 83
2007-12-04 12:29 51°20.16 2°58.879 12.6 301 9.2 101570 83
2007-12-04 12:30 51°20.078 2°58.566 12.9 302 9.3 101570 84
2007-12-04 12:31 51°19.995 2°58.255 14.1 301 9.3 101580 84
2007-12-04 12:32 51°19.913 2°57.945 13.7 326 9.3 101580 84
2007-12-04 12:33 51°19.833 2°57.633 12.6 327 9.3 101570 84
2007-12-04 12:34 51°19.737 2°57.336 14.2 328 9.3 101580 84
2007-12-04 12:35 51°19.638 2°57.04 13.4 325 9.3 101570 84
2007-12-04 12:36 51°19.542 2°56.747 12.4 327 9.3 101580 84
2007-12-04 12:37 51°19.443 2°56.454 14.1 324 9.4 101560 84
2007-12-04 12:38 51°19.345 2°56.154 14.3 304 9.4 101580 84
2007-12-04 12:39 51°19.248 2°55.862 14.3 302 9.4 101570 84
2007-12-04 12:40 51°19.151 2°55.569 13.8 304 9.4 101560 84
2007-12-04 12:41 51°19.055 2°55.275 12.8 326 9.4 101590 84
2007-12-04 12:42 51°18.957 2°54.983 12.4 305 9.4 101560 84
2007-12-04 12:43 51°18.86 2°54.689 13.9 304 9.4 101570 84
2007-12-04 12:44 51°18.761 2°54.397 12 325 9.4 101560 84
2007-12-04 12:45 51°18.662 2°54.105 12.4 307 9.4 101560 84
2007-12-04 12:46 51°18.562 2°53.813 11.9 304 9.4 101550 84
2007-12-04 12:47 51°18.461 2°53.52 13.3 305 9.5 101550 84
2007-12-04 12:48 51°18.362 2°53.227 11.7 307 9.5 101550 84
2007-12-04 12:49 51°18.262 2°52.933 13.5 322 9.5 101540 84
2007-12-04 12:50 51°18.123 2°52.697 12.4 331 9.5 101550 84
2007-12-04 12:51 51°17.933 2°52.569 14.2 334 9.5 101560 84
2007-12-04 12:52 51°17.743 2°52.442 13.1 333 9.5 101550 85
2007-12-04 12:53 51°17.552 2°52.31 15 333 9.5 101560 84
2007-12-04 12:54 51°17.35 2°52.259 12.3 343 9.5 101550 84
2007-12-04 12:55 51°17.155 2°52.346 12.2 347 9.5 101540 84
2007-12-04 12:56 51°16.96 2°52.456 12 343 9.5 101550 84
2007-12-04 12:57 51°16.768 2°52.563 12 345 9.5 101550 84
2007-12-04 12:58 51°16.573 2°52.668 12.3 343 9.5 101550 84
2007-12-04 12:59 51°16.381 2°52.792 12.1 346 9.5 101550 84
2007-12-04 13:00 51°16.194 2°52.936 12 349 9.5 101550 84
2007-12-04 13:01 51°16.009 2°53.09 12.9 346 9.5 101560 84
2007-12-04 13:02 51°15.823 2°53.24 12.4 348 9.5 101590 84
2007-12-04 13:03 51°15.641 2°53.392 11.5 347 9.5 101590 83
2007-12-04 13:04 51°15.457 2°53.539 11.1 348 9.5 101590 83
2007-12-04 13:05 51°15.279 2°53.705 11.2 345 9.4 101600 84
2007-12-04 13:06 51°15.101 2°53.873 11.4 349 9.4 101600 84
2007-12-04 13:07 51°14.941 2°54.072 10.9 349 9.3 101600 84
2007-12-04 13:08 51°14.797 2°54.294 9.8 349 9.3 101600 84
2007-12-04 13:09 51°14.657 2°54.535 12 350 9.3 101590 84
2007-12-04 13:10 51°14.52 2°54.788 9.6 350 9.2 101590 84
2007-12-04 13:11 51°14.389 2°55.028 9.3 347 9.2 101600 84
2007-12-04 13:12 51°14.279 2°55.234 7.1 348 9.2 101610 84
2007-12-04 13:13 51°14.19 2°55.349 6 343 9.3 101620 84
2007-12-04 13:14 51°14.129 2°55.398 3.7 345 9.3 101620 84
2007-12-04 13:15 51°14.085 2°55.433 3.6 344 9.3 101620 83
2007-12-04 13:16 51°14.041 2°55.468 4.5 338 9.4 101620 83
2007-12-04 13:17 51°13.996 2°55.506 5.5 353 9.4 101630 83
2007-12-04 13:18 51°13.948 2°55.544 5.6 356 9.4 101630 83
2007-12-04 13:19 51°13.886 2°55.589 3.6 347 9.4 101630 83
2007-12-04 13:20 51°13.813 2°55.648 5.2 335 9.4 101630 83
2007-12-04 13:21 51°13.742 2°55.73 6.3 345 9.4 101620 83
2007-12-04 13:22 51°13.682 2°55.834 5 352 9.4 101630 83
2007-12-04 13:23 51°13.637 2°55.938 3.6 331 9.4 101630 83
2007-12-04 13:24 51°13.607 2°56.032 3.2 358 9.4 101630 83
2007-12-04 13:25 51°13.599 2°56.084 2.2 359 9.4 101630 84
2007-12-04 13:26 51°13.598 2°56.093 2.4 24 9.4 101630 84